Time,TemperatureF,DewpointF,PressureIn,WindDirection,WindDirectionDegrees,WindSpeedMPH,WindSpeedGustMPH,Humidity,HourlyPrecipIn,Conditions,Clouds,dailyrainin,SoftwareType,DateUTC
2013-12-02 00:01:00,33.0,30.0,29.97,SSW,211,2.0,7.0,87,0.00,,,0.28,weatherlink.com 1.10,2013-12-02 05:01:00,
2013-12-02 00:16:00,33.1,30.0,29.97,SSE,157,0.0,7.0,88,0.00,,,0.28,weatherlink.com 1.10,2013-12-02 05:16:00,
2013-12-02 00:31:00,33.2,30.0,29.96,East,80,1.0,2.0,87,0.00,,,0.28,weatherlink.com 1.10,2013-12-02 05:31:00,
2013-12-02 00:46:00,33.9,30.0,29.95,NW,324,2.0,4.0,84,0.00,,,0.28,weatherlink.com 1.10,2013-12-02 05:46:00,
2013-12-02 01:01:00,34.4,30.0,29.95,WNW,302,2.0,4.0,83,0.00,,,0.28,weatherlink.com 1.10,2013-12-02 06:01:00,
2013-12-02 01:16:00,34.5,30.0,29.95,West,266,1.0,4.0,84,0.00,,,0.28,weatherlink.com 1.10,2013-12-02 06:16:00,
2013-12-02 01:31:00,34.5,31.0,29.94,WNW,289,2.0,8.0,85,0.00,,,0.28,weatherlink.com 1.10,2013-12-02 06:31:00,
2013-12-02 01:46:00,34.3,31.0,29.93,West,271,4.0,7.0,86,0.00,,,0.28,weatherlink.com 1.10,2013-12-02 06:46:00,
2013-12-02 02:01:00,34.4,31.0,29.93,NW,310,2.0,9.0,86,0.00,,,0.28,weatherlink.com 1.10,2013-12-02 07:01:00,
2013-12-02 02:16:00,34.6,31.0,29.93,NW,304,4.0,9.0,86,0.00,,,0.28,weatherlink.com 1.10,2013-12-02 07:16:00,
2013-12-02 02:31:00,35.0,31.0,29.92,WNW,286,2.0,5.0,84,0.00,,,0.28,weatherlink.com 1.10,2013-12-02 07:31:00,
2013-12-02 02:46:00,35.5,31.0,29.92,WNW,302,4.0,7.0,82,0.00,,,0.28,weatherlink.com 1.10,2013-12-02 07:46:00,
2013-12-02 03:01:00,35.2,30.0,29.92,NW,309,2.0,8.0,82,0.00,,,0.28,weatherlink.com 1.10,2013-12-02 08:01:00,
2013-12-02 03:16:00,35.0,30.0,29.91,NW,312,4.0,6.0,83,0.00,,,0.28,weatherlink.com 1.10,2013-12-02 08:16:00,
2013-12-02 03:31:00,34.9,30.0,29.90,WNW,292,4.0,7.0,83,0.00,,,0.28,weatherlink.com 1.10,2013-12-02 08:31:00,
2013-12-02 03:46:00,34.7,31.0,29.90,WNW,290,2.0,6.0,85,0.00,,,0.28,weatherlink.com 1.10,2013-12-02 08:46:00,
2013-12-02 04:01:00,34.7,31.0,29.89,West,269,3.0,6.0,86,0.00,,,0.28,weatherlink.com 1.10,2013-12-02 09:01:00,
2013-12-02 04:16:00,34.6,31.0,29.89,SW,214,2.0,5.0,87,0.00,,,0.28,weatherlink.com 1.10,2013-12-02 09:16:00,
2013-12-02 04:31:00,35.2,31.0,29.89,NW,305,0.0,5.0,84,0.01,,,0.29,weatherlink.com 1.10,2013-12-02 09:31:00,
2013-12-02 04:47:00,35.6,31.0,29.89,West,270,0.0,3.0,83,0.01,,,0.29,weatherlink.com 1.10,2013-12-02 09:47:00,
2013-12-02 05:02:00,35.9,31.0,29.88,West,273,0.0,4.0,83,0.01,,,0.29,weatherlink.com 1.10,2013-12-02 10:02:00,
2013-12-02 05:17:00,36.2,32.0,29.88,WNW,288,3.0,5.0,83,0.01,,,0.29,weatherlink.com 1.10,2013-12-02 10:17:00,
2013-12-02 05:32:00,36.2,32.0,29.88,West,266,1.0,4.0,83,0.00,,,0.29,weatherlink.com 1.10,2013-12-02 10:32:00,
2013-12-02 05:47:00,35.9,31.0,29.88,WNW,286,0.0,0.0,83,0.00,,,0.29,weatherlink.com 1.10,2013-12-02 10:47:00,
2013-12-02 06:02:00,35.6,31.0,29.88,WNW,286,0.0,2.0,84,0.00,,,0.29,weatherlink.com 1.10,2013-12-02 11:02:00,
2013-12-02 06:17:00,35.7,31.0,29.87,WNW,287,0.0,3.0,84,0.00,,,0.29,weatherlink.com 1.10,2013-12-02 11:17:00,
2013-12-02 06:32:00,35.5,31.0,29.87,WNW,290,0.0,1.0,84,0.00,,,0.29,weatherlink.com 1.10,2013-12-02 11:32:00,
2013-12-02 06:47:00,35.6,31.0,29.87,WNW,290,0.0,1.0,84,0.00,,,0.29,weatherlink.com 1.10,2013-12-02 11:47:00,
2013-12-02 07:02:00,35.8,31.0,29.87,South,188,0.0,4.0,84,0.00,,,0.29,weatherlink.com 1.10,2013-12-02 12:02:00,
2013-12-02 07:17:00,34.6,31.0,29.87,SSE,166,0.0,4.0,86,0.00,,,0.29,weatherlink.com 1.10,2013-12-02 12:17:00,
2013-12-02 07:32:00,33.6,30.0,29.87,SE,137,0.0,6.0,88,0.00,,,0.29,weatherlink.com 1.10,2013-12-02 12:32:00,
2013-12-02 07:47:00,33.5,31.0,29.87,SE,138,0.0,0.0,89,0.00,,,0.29,weatherlink.com 1.10,2013-12-02 12:47:00,
2013-12-02 08:02:00,33.5,31.0,29.87,SE,138,0.0,0.0,89,0.00,,,0.29,weatherlink.com 1.10,2013-12-02 13:02:00,
2013-12-02 08:17:00,34.1,31.0,29.87,SE,138,0.0,0.0,89,0.00,,,0.29,weatherlink.com 1.10,2013-12-02 13:17:00,
2013-12-02 08:32:00,35.0,32.0,29.87,East,95,0.0,1.0,87,0.00,,,0.29,weatherlink.com 1.10,2013-12-02 13:32:00,
2013-12-02 08:47:00,35.2,32.0,29.87,East,95,0.0,0.0,88,0.00,,,0.00,weatherlink.com 1.10,2013-12-02 13:47:00,
2013-12-02 09:02:00,35.2,32.0,29.87,ENE,58,0.0,2.0,87,0.00,,,0.00,weatherlink.com 1.10,2013-12-02 14:02:00,
2013-12-02 09:17:00,35.6,32.0,29.87,ENE,58,0.0,0.0,87,0.00,,,0.00,weatherlink.com 1.10,2013-12-02 14:17:00,
2013-12-02 09:32:00,36.4,32.0,29.87,ENE,78,0.0,3.0,85,0.00,,,0.00,weatherlink.com 1.10,2013-12-02 14:32:00,
2013-12-02 09:47:00,36.4,32.0,29.87,NE,46,3.0,3.0,85,0.00,,,0.00,weatherlink.com 1.10,2013-12-02 14:47:00,
2013-12-02 10:02:00,36.3,33.0,29.86,NNE,20,2.0,3.0,86,0.00,,,0.00,weatherlink.com 1.10,2013-12-02 15:02:00,
2013-12-02 10:17:00,35.7,33.0,29.86,ENE,78,1.0,3.0,89,0.01,,,0.01,weatherlink.com 1.10,2013-12-02 15:17:00,
2013-12-02 10:32:00,35.7,33.0,29.86,ENE,69,0.0,2.0,90,0.01,,,0.01,weatherlink.com 1.10,2013-12-02 15:32:00,
2013-12-02 10:47:00,36.9,34.0,29.86,ENE,78,0.0,3.0,88,0.01,,,0.01,weatherlink.com 1.10,2013-12-02 15:47:00,
2013-12-02 11:02:00,38.0,35.0,29.85,ENE,71,0.0,2.0,87,0.01,,,0.01,weatherlink.com 1.10,2013-12-02 16:02:00,
2013-12-02 11:17:00,38.0,35.0,29.85,NE,50,1.0,5.0,87,0.00,,,0.01,weatherlink.com 1.10,2013-12-02 16:17:00,
2013-12-02 11:32:00,38.2,34.0,29.85,East,85,1.0,10.0,86,0.00,,,0.01,weatherlink.com 1.10,2013-12-02 16:32:00,
2013-12-02 11:47:00,38.5,35.0,29.84,East,90,3.0,4.0,86,0.00,,,0.01,weatherlink.com 1.10,2013-12-02 16:47:00,
2013-12-02 12:02:00,38.6,35.0,29.84,SE,130,0.0,8.0,85,0.00,,,0.01,weatherlink.com 1.10,2013-12-02 17:02:00,
2013-12-02 12:17:00,39.0,35.0,29.83,ENE,70,1.0,4.0,85,0.00,,,0.01,weatherlink.com 1.10,2013-12-02 17:17:00,
2013-12-02 12:32:00,39.8,35.0,29.82,NE,55,2.0,5.0,83,0.00,,,0.01,weatherlink.com 1.10,2013-12-02 17:32:00,
2013-12-02 12:47:00,40.2,35.0,29.82,ENE,66,4.0,5.0,81,0.00,,,0.01,weatherlink.com 1.10,2013-12-02 17:47:00,
2013-12-02 13:02:00,40.1,35.0,29.81,ENE,64,0.0,6.0,81,0.00,,,0.01,weatherlink.com 1.10,2013-12-02 18:02:00,
2013-12-02 13:17:00,39.8,35.0,29.81,NNE,31,0.0,5.0,82,0.00,,,0.01,weatherlink.com 1.10,2013-12-02 18:17:00,
2013-12-02 13:32:00,40.3,35.0,29.81,ESE,105,2.0,8.0,80,0.00,,,0.01,weatherlink.com 1.10,2013-12-02 18:32:00,
2013-12-02 13:47:00,42.2,35.0,29.80,ENE,62,0.0,7.0,77,0.00,,,0.01,weatherlink.com 1.10,2013-12-02 18:47:00,
2013-12-02 14:02:00,43.1,35.0,29.79,SE,137,2.0,4.0,73,0.00,,,0.01,weatherlink.com 1.10,2013-12-02 19:02:00,
2013-12-02 14:17:00,42.8,35.0,29.79,NE,51,0.0,7.0,74,0.00,,,0.01,weatherlink.com 1.10,2013-12-02 19:17:00,
2013-12-02 14:33:00,41.7,34.0,29.79,ENE,78,2.0,5.0,75,0.00,,,0.01,weatherlink.com 1.10,2013-12-02 19:33:00,
2013-12-02 14:48:00,41.2,35.0,29.79,ENE,58,3.0,3.0,77,0.00,,,0.01,weatherlink.com 1.10,2013-12-02 19:48:00,
2013-12-02 15:03:00,40.5,34.0,29.79,ESE,105,0.0,4.0,79,0.00,,,0.01,weatherlink.com 1.10,2013-12-02 20:03:00,
2013-12-02 15:18:00,40.2,35.0,29.79,ESE,102,0.0,2.0,80,0.00,,,0.01,weatherlink.com 1.10,2013-12-02 20:18:00,
2013-12-02 15:33:00,39.8,34.0,29.79,NNW,337,0.0,3.0,81,0.00,,,0.01,weatherlink.com 1.10,2013-12-02 20:33:00,
2013-12-02 15:48:00,39.5,34.0,29.80,NE,36,0.0,0.0,82,0.00,,,0.01,weatherlink.com 1.10,2013-12-02 20:48:00,
2013-12-02 16:03:00,39.2,34.0,29.79,ENE,59,0.0,1.0,81,0.00,,,0.01,weatherlink.com 1.10,2013-12-02 21:03:00,
2013-12-02 16:18:00,38.6,32.0,29.79,East,94,1.0,3.0,78,0.00,,,0.01,weatherlink.com 1.10,2013-12-02 21:18:00,
2013-12-02 16:33:00,37.7,31.0,29.79,ENE,76,0.0,2.0,78,0.00,,,0.01,weatherlink.com 1.10,2013-12-02 21:33:00,
2013-12-02 16:48:00,37.1,31.0,29.79,East,91,1.0,3.0,79,0.00,,,0.01,weatherlink.com 1.10,2013-12-02 21:48:00,
2013-12-02 17:03:00,36.5,31.0,29.79,East,86,2.0,3.0,80,0.00,,,0.01,weatherlink.com 1.10,2013-12-02 22:03:00,
2013-12-02 17:18:00,35.9,31.0,29.80,East,86,2.0,5.0,81,0.00,,,0.01,weatherlink.com 1.10,2013-12-02 22:18:00,
2013-12-02 17:33:00,35.6,31.0,29.80,East,86,2.0,3.0,82,0.00,,,0.01,weatherlink.com 1.10,2013-12-02 22:33:00,
2013-12-02 17:48:00,35.4,31.0,29.80,East,80,3.0,3.0,83,0.00,,,0.01,weatherlink.com 1.10,2013-12-02 22:48:00,
2013-12-02 18:03:00,35.2,31.0,29.80,ENE,74,2.0,4.0,83,0.00,,,0.01,weatherlink.com 1.10,2013-12-02 23:03:00,
2013-12-02 18:18:00,35.0,30.0,29.80,ENE,73,2.0,4.0,83,0.00,,,0.01,weatherlink.com 1.10,2013-12-02 23:18:00,
2013-12-02 18:33:00,35.0,31.0,29.81,ENE,76,2.0,4.0,84,0.00,,,0.01,weatherlink.com 1.10,2013-12-02 23:33:00,
2013-12-02 18:48:00,34.6,30.0,29.81,East,80,3.0,7.0,84,0.00,,,0.01,weatherlink.com 1.10,2013-12-02 23:48:00,
2013-12-02 19:03:00,34.1,30.0,29.81,East,81,5.0,5.0,85,0.00,,,0.01,weatherlink.com 1.10,2013-12-03 00:03:00,
2013-12-02 19:18:00,33.8,30.0,29.82,ENE,71,3.0,6.0,86,0.00,,,0.01,weatherlink.com 1.10,2013-12-03 00:18:00,
2013-12-02 19:33:00,33.6,30.0,29.82,East,90,5.0,5.0,86,0.00,,,0.01,weatherlink.com 1.10,2013-12-03 00:33:00,
2013-12-02 19:48:00,33.4,30.0,29.82,East,83,3.0,6.0,87,0.00,,,0.01,weatherlink.com 1.10,2013-12-03 00:48:00,
2013-12-02 20:03:00,33.7,30.0,29.82,ENE,77,2.0,7.0,86,0.00,,,0.01,weatherlink.com 1.10,2013-12-03 01:03:00,
2013-12-02 20:18:00,33.7,30.0,29.82,East,87,3.0,6.0,86,0.01,,,0.02,weatherlink.com 1.10,2013-12-03 01:18:00,
2013-12-02 20:33:00,33.4,30.0,29.82,ENE,70,3.0,5.0,86,0.01,,,0.02,weatherlink.com 1.10,2013-12-03 01:33:00,
2013-12-02 20:48:00,33.3,30.0,29.82,ENE,67,3.0,8.0,87,0.01,,,0.02,weatherlink.com 1.10,2013-12-03 01:48:00,
2013-12-02 21:03:00,33.3,30.0,29.82,ENE,78,3.0,5.0,87,0.01,,,0.02,weatherlink.com 1.10,2013-12-03 02:03:00,
2013-12-02 21:18:00,33.3,30.0,29.82,East,79,2.0,5.0,88,0.00,,,0.02,weatherlink.com 1.10,2013-12-03 02:18:00,
2013-12-02 21:33:00,33.2,30.0,29.82,ENE,73,3.0,6.0,88,0.00,,,0.02,weatherlink.com 1.10,2013-12-03 02:33:00,
2013-12-02 21:48:00,33.1,30.0,29.83,ENE,77,1.0,4.0,88,0.00,,,0.02,weatherlink.com 1.10,2013-12-03 02:48:00,
2013-12-02 22:03:00,32.8,30.0,29.83,ENE,76,1.0,3.0,88,0.00,,,0.02,weatherlink.com 1.10,2013-12-03 03:03:00,
2013-12-02 22:18:00,32.7,30.0,29.84,ENE,76,2.0,4.0,89,0.00,,,0.02,weatherlink.com 1.10,2013-12-03 03:18:00,
2013-12-02 22:33:00,32.6,30.0,29.83,ENE,77,3.0,4.0,89,0.00,,,0.02,weatherlink.com 1.10,2013-12-03 03:33:00,
2013-12-02 22:48:00,32.6,30.0,29.84,ENE,69,3.0,4.0,90,0.00,,,0.02,weatherlink.com 1.10,2013-12-03 03:48:00,
2013-12-02 23:03:00,32.9,30.0,29.84,ENE,65,2.0,4.0,90,0.00,,,0.02,weatherlink.com 1.10,2013-12-03 04:03:00,
2013-12-02 23:18:00,32.8,30.0,29.84,ENE,67,3.0,3.0,90,0.00,,,0.02,weatherlink.com 1.10,2013-12-03 04:18:00,
2013-12-02 23:33:00,32.6,30.0,29.84,ENE,67,1.0,3.0,91,0.00,,,0.02,weatherlink.com 1.10,2013-12-03 04:33:00,
2013-12-02 23:48:00,32.8,31.0,29.84,ENE,71,2.0,3.0,92,0.00,,,0.02,weatherlink.com 1.10,2013-12-03 04:48:00,